sat.trackr.live / text

‹ back to catalog

STARLINK-11558 [DTC]

NORAD 63055 · 2025-035D

PAYLOAD ACTIVE UNKNOWN

§ Identity

Operator
Country
US
Launch date
2025-02-21
Launch site
AFETR
Launch vehicle
Mass (kg)
RCS (m²)

Purposes: comms

External: N2YO · Heavens-Above · Gunter

§ Orbital elements

Epoch: 2026-05-24T17:19:13.870848Z

Period
91.67 min
Inclination
42.9993°
Eccentricity
0.0002524
Mean motion
15.70915308 rev/d
Perigee alt
354.6 km
Apogee alt
358.0 km
Semi-major
6,734.4 km
B*
1.3849e-3
RAAN
276.6088°
Arg perigee
261.6862°
Mean anomaly
98.3720°
Rev number
7,307

§ Raw data

STARLINK-11558 [DTC]1 63055U 25035D   26144.72168832  .00181780  00000+0  13849-2 0  99992 63055  42.9993 276.6088 0002524 261.6862  98.3720 15.70915308 73073

JSON: /api/v1/satellites/63055 · /tle

For live sub-satellite position, see the globe view (requires WebGL).

§ Visibility from observer

Set your observer location to see the next 7 days of passes ≥ 10°. The values pass through the URL so the page stays shareable.

No JS? Fill the form by hand. The geolocation button needs JavaScript.